Location: Moy Burn
(57.3833°N, 4.0667°W)
Time: 09:26:45
(UTC+00:00)

Cosmos 2219 Rocket - Pass Details

Date: 08 August 2020
Orbit: 826 x 848 km, 71.0° (Epoch: 18 September)

Event Time Altitude Azimuth Distance (km) Brightness Sun altitude
Rises 23:26:44 0° 323° (NW) 3,415 6.6 -15.9°
Reaches altitude 10° 23:29:11 10° 324° (NW) 2,479 5.7 -16.0°
Maximum altitude 23:34:54 86° 55° (NE) 858 2.2 -16.2°
Enters shadow 23:38:40 22° 143° (SE) 1,756 3.3 -16.3°
